Flag for Norway Weather past 2 weeks in Sandefjord, Norway

Now
63 °F

Sunny.


Feels Like: 63 °F
Forecast: 49 / 65 °F
Wind: 6 mph from Southeast

Location: Torp

Current Time: Aug 3, 2015 at 7:23:18 PM

Latest Report: Aug 3, 2015 at 6:50 PM


Visibility: 10 mi

Pressure: 30.09 "Hg

Humidity: 42%

Dew point: 39 °F

Location of SandefjordLocation

Historic Weather in Sandefjord — Graph

°F

Sandefjord temperature yesterday

Maximum temperature yesterday: 64 °F (at 1:50 PM)
Minimum temperature yesterday: 52 °F (at 4:50 AM)
Average temperature yesterday: 58 °F

Past Weeks' High & Low Weather Summary

 TemperatureHumidityPressure
High70 °F (Jul 22, 2:20 PM)100% (Jul 20, 11:50 PM)30.15 "Hg (Jul 20, 11:50 PM)
Low46 °F (Aug 1, 6:20 AM)35% (Jul 23, 3:50 PM)29.36 "Hg (Jul 29, 2:20 PM)
Average58 °F79%29.69 "Hg
* Reported Jul 19 5:20 PM — Aug 3 5:50 PM, Sandefjord, Weather by CustomWeather, © 2015

Note: Actual official high and low records may vary slightly from our data, if they occured in-between our weather recording intervals... More about our weather records

Advertising

Sandefjord weather history for previous 24 hours

 ConditionsComfort  
Time TempWeatherWind HumidityBarometerVisibility
5:50 PM
Mon, Aug 3
63 °FSunny.8 mph59%30.12 "Hg10 mi
5:20 PM63 °FPassing clouds.7 mph64%30.12 "HgN/A
4:50 PM61 °FPassing clouds.7 mph63%30.12 "HgN/A
4:20 PM63 °FPassing clouds.8 mph56%30.12 "HgN/A
3:50 PM63 °FPassing clouds.8 mph64%30.15 "HgN/A
3:20 PM64 °FPassing clouds.8 mph68%30.15 "HgN/A
2:50 PM63 °FScattered clouds.9 mph77%30.15 "HgN/A
2:20 PM64 °FPartly sunny.6 mph78%30.15 "HgN/A
1:50 PM63 °FPartly sunny.5 mph73%30.15 "HgN/A
1:20 PM61 °FPartly sunny.6 mph83%30.15 "HgN/A
12:50 PM61 °FBroken clouds.3 mph77%30.15 "HgN/A
12:20 PM59 °FBroken clouds.6 mph77%30.15 "HgN/A
11:50 AM59 °FPassing clouds.7 mph77%30.15 "HgN/A
11:20 AM57 °FPassing clouds.6 mph77%30.15 "HgN/A
10:50 AM59 °FPassing clouds.8 mph77%30.15 "HgN/A
10:20 AM57 °FSunny.8 mph77%30.15 "Hg10 mi
9:50 AM55 °FSunny.6 mph82%30.15 "Hg10 mi
9:20 AM54 °FSunny.8 mph88%30.15 "Hg10 mi
8:50 AM54 °FSunny.8 mph82%30.12 "Hg10 mi
8:20 AM52 °FSunny.8 mph88%30.12 "Hg10 mi
7:50 AM52 °FSunny.7 mph82%30.12 "Hg10 mi
7:20 AM50 °FSunny.7 mph88%30.12 "Hg10 mi
6:50 AM50 °FSunny.8 mph82%30.12 "Hg10 mi
5:50 AM46 °FClear.7 mph87%30.12 "Hg10 mi
4:50 AM46 °FCool.6 mph87%30.09 "HgN/A
4:20 AM48 °FCool.5 mph76%30.09 "HgN/A
3:50 AM48 °FCool.6 mph82%30.09 "HgN/A
3:20 AM48 °FCool.5 mph82%30.09 "HgN/A
2:50 AM48 °FCool.5 mph82%30.09 "HgN/A
2:20 AM50 °FCool.3 mph76%30.09 "HgN/A
1:50 AM50 °FCool.3 mph76%30.09 "HgN/A
1:20 AM52 °FCool.3 mph77%30.09 "HgN/A
12:50 AM54 °FCool.3 mph72%30.09 "HgN/A
12:20 AM52 °FCool.5 mph88%30.07 "HgN/A
11:50 PM
Sun, Aug 2
55 °FCool.6 mph82%30.07 "HgN/A
11:20 PM54 °FCool.6 mph88%30.07 "HgN/A
10:50 PM55 °FClear.6 mph82%30.07 "Hg10 mi
10:20 PM57 °FSunny.7 mph77%30.04 "Hg10 mi
9:50 PM57 °FSunny.9 mph88%30.04 "Hg10 mi
9:20 PM59 °FSunny.7 mph82%30.04 "Hg10 mi
8:50 PM61 °FSunny.5 mph72%30.04 "Hg10 mi
8:20 PM63 °FSunny.6 mph64%30.01 "Hg10 mi
7:50 PM63 °FSunny.8 mph64%30.01 "Hg10 mi
7:20 PM63 °FPassing clouds.8 mph68%30.01 "HgN/A
Weather by CustomWeather, © 2015

See weather overviewHow to use our weather pages